Theta_e
308 308 311 311 310 309 307 306 305 305 305 308 311 312 311 309 308 305 304 305 304 306 312 310 307 306 304 299 296 295 294 293 294 294 293 293 293 293 293 292 292 292 292 292 292 291 291 291 290 290 290 290 290 290 289 289 289 289 289 290 290 290 290 290 291 291 292 293 293 294 294 294 294 294 294 294 294 294 293 293 293 293 293 293 292 292
307 308 310 308 307 305 305 305 304 305 306 309 312 313 310 307 306 303 302 304 303 304 310 308 307 307 302 296 294 294 294 293 293 293 293 293 292 292 292 292 292 292 292 292 291 291 291 291 290 290 290 290 289 289 289 289 289 289 289 289 290 290 290 290 290 291 291 291 292 292 293 293 294 294 294 294 294 293 293 293 293 292 292 292 292 292
309 308 309 307 304 303 304 305 304 308 309 309 309 310 309 306 304 305 304 305 302 302 310 309 306 308 301 294 294 294 293 293 292 293 292 292 292 292 292 291 292 291 291 291 291 291 291 290 290 290 290 289 289 289 289 289 289 288 288 289 289 289 290 290 290 290 290 290 290 291 291 292 293 293 293 293 293 293 293 293 292 292 292 291 291 291
308 308 308 304 304 305 306 307 306 308 310 309 307 307 308 305 303 306 306 306 302 300 307 308 305 307 300 294 294 293 293 293 292 293 292 292 292 292 292 292 291 291 291 291 290 291 291 290 290 290 290 289 289 289 289 289 288 288 288 288 289 289 289 290 290 290 290 290 290 290 290 290 291 292 292 292 293 293 293 293 293 292 292 292 291 291
307 306 305 304 307 308 307 308 308 309 312 311 308 305 305 305 303 304 304 303 303 301 302 305 307 308 300 295 295 294 293 293 292 292 292 292 292 291 292 291 291 291 291 290 290 290 290 290 290 290 290 289 289 289 289 289 288 288 288 288 288 289 289 289 290 290 290 290 290 290 290 290 290 290 291 291 292 292 292 292 293 293 293 293 292 292
308 304 303 307 310 309 306 308 306 306 313 313 310 305 302 304 303 303 303 302 306 307 302 302 306 309 302 295 295 294 293 293 292 292 292 291 291 291 291 291 291 291 290 290 290 290 290 290 290 290 290 289 289 289 289 289 288 288 288 288 288 288 288 289 289 289 290 290 290 290 290 290 290 290 290 290 291 291 291 292 292 293 293 293 293 292
306 304 305 307 308 309 306 306 303 303 311 310 307 305 301 302 303 304 305 303 305 306 301 300 304 306 302 297 295 294 293 293 292 292 291 291 291 291 291 290 290 290 290 290 290 290 290 290 290 290 289 289 289 290 289 289 288 288 288 287 288 288 288 288 288 289 289 289 290 290 290 290 290 290 290 290 290 290 290 291 291 292 292 292 292 292
305 308 311 311 308 307 305 305 303 303 309 307 304 303 302 303 304 305 306 304 305 304 301 302 302 303 305 300 294 294 295 292 292 292 291 291 291 290 290 290 290 290 290 289 289 289 290 290 290 289 289 289 290 290 290 289 288 287 287 287 288 288 287 287 288 288 289 289 289 289 290 290 289 290 290 290 290 290 290 290 290 291 291 291 291 291
304 309 311 311 307 304 304 303 303 303 308 310 306 302 301 302 303 305 309 310 304 302 302 304 301 301 306 301 294 295 296 293 292 293 291 291 291 290 290 290 290 290 289 289 289 289 289 289 289 289 289 289 289 290 290 289 288 287 287 287 287 287 287 287 287 287 288 289 289 289 289 289 289 289 289 290 290 289 289 289 290 290 290 291 291 291
303 305 303 307 306 304 305 305 305 305 306 307 304 300 300 300 301 302 306 310 306 302 301 303 300 300 302 301 299 297 296 293 292 292 292 291 291 290 290 289 289 289 289 289 289 289 289 289 289 289 289 288 289 290 290 288 287 286 286 287 287 287 287 286 286 287 287 288 289 289 289 289 289 289 289 289 289 289 289 289 289 289 290 290 290 290
301 302 301 306 306 304 305 305 303 305 306 305 303 302 301 299 301 304 304 305 305 303 300 299 300 301 301 301 298 296 295 293 293 292 291 291 290 290 290 289 289 289 289 289 288 289 289 288 289 289 289 288 288 290 290 287 286 286 286 286 287 287 287 286 286 286 287 288 288 288 289 289 289 289 289 289 289 289 289 289 289 289 289 290 290 290
304 303 303 304 304 303 304 303 301 301 304 305 303 301 300 298 303 311 313 308 301 299 300 302 302 301 301 300 295 294 294 293 293 293 292 291 289 289 290 289 289 289 289 288 288 288 288 288 289 289 288 288 287 289 289 287 286 286 286 286 286 286 286 286 286 286 286 287 288 288 288 288 288 288 289 289 289 289 289 289 289 289 289 289 289 290
306 302 299 300 301 301 303 305 305 305 305 304 303 303 301 301 303 306 308 307 302 299 300 303 302 300 300 299 294 294 294 293 293 293 292 292 290 289 289 289 289 289 288 288 288 288 287 287 288 288 288 287 287 289 288 286 286 286 285 285 285 286 286 286 285 285 286 286 287 288 288 288 288 288 288 288 288 289 289 289 289 289 289 289 289 289
308 304 301 301 300 299 301 303 304 305 306 304 304 304 302 303 302 301 302 302 301 300 298 298 298 300 301 297 294 294 294 293 292 292 293 292 290 289 289 289 289 288 288 288 287 287 287 287 288 288 287 286 286 288 287 286 285 285 285 285 285 285 285 285 285 285 285 286 286 287 287 287 287 287 288 288 288 288 288 288 288 288 288 288 289 289
305 305 303 301 300 301 303 301 301 303 304 303 303 303 304 303 300 302 304 302 299 300 299 297 299 303 301 296 294 294 294 293 292 292 292 292 290 289 288 288 288 287 287 287 287 286 286 286 287 287 287 286 286 287 286 285 285 285 284 284 284 284 285 285 285 285 285 286 286 286 286 286 287 287 287 287 288 288 288 288 288 288 288 288 288 288
301 301 302 301 298 302 303 300 300 301 302 302 302 304 305 303 302 304 304 301 298 301 302 301 303 302 297 293 293 294 293 293 292 291 291 290 290 288 287 287 287 286 286 286 286 286 286 286 286 287 286 286 286 286 286 285 284 284 284 284 284 284 285 285 285 285 285 285 285 286 286 286 286 286 287 287 287 287 287 287 287 287 287 288 288 288
302 301 303 302 299 302 302 300 301 302 300 301 301 302 300 299 302 305 303 300 299 301 302 301 300 298 295 294 292 292 293 292 291 291 290 290 289 287 287 286 286 286 285 285 285 285 285 285 286 286 286 285 285 285 285 284 284 284 284 284 284 284 285 285 285 284 284 285 285 285 285 286 286 286 286 286 286 286 287 287 287 287 287 287 287 287
299 304 306 302 300 302 298 298 302 300 300 302 303 300 298 299 302 303 302 301 301 301 300 299 299 297 298 297 293 292 294 293 291 291 290 289 288 287 286 286 285 285 285 284 284 284 285 285 285 285 285 285 285 285 284 284 284 283 284 284 284 284 284 285 284 284 284 284 285 285 285 285 285 286 286 286 286 286 286 286 286 286 286 287 287 287
297 304 307 300 299 300 297 298 301 300 297 300 301 299 297 300 302 301 299 299 300 299 299 299 298 297 298 298 295 294 294 292 291 291 290 289 287 286 285 285 284 284 284 284 284 284 284 285 285 285 285 285 285 285 284 284 283 283 283 284 284 284 284 284 284 284 284 284 285 285 285 285 285 285 285 285 286 286 286 286 286 286 286 286 286 287
297 302 304 300 299 299 298 299 299 299 299 300 301 300 299 299 299 298 298 298 299 299 298 298 297 297 299 298 296 294 293 291 291 290 289 287 285 285 284 284 284 283 284 284 284 284 284 284 284 284 285 284 284 284 284 284 283 283 283 284 284 284 284 284 284 284 284 284 285 285 285 285 285 285 285 285 285 285 285 285 286 286 286 286 286 286
298 299 300 302 301 299 299 298 296 297 299 301 303 301 299 299 298 296 296 297 298 298 298 298 297 297 298 296 294 293 291 290 290 289 287 285 284 284 283 283 283 283 283 283 284 284 284 284 284 284 284 284 284 284 283 283 283 284 284 284 284 284 284 284 284 284 284 284 284 285 285 285 285 285 285 285 285 285 285 285 285 285 285 285 286 286
298 299 300 302 302 299 298 296 294 296 297 298 301 299 297 298 298 297 297 296 297 297 297 297 296 296 296 295 294 293 290 289 289 287 285 284 283 283 283 283 283 283 283 284 283 284 284 284 284 284 284 284 284 284 283 283 284 284 284 284 284 284 284 284 284 284 284 284 284 285 284 284 285 285 285 285 285 285 285 285 285 285 285 285 285 285
298 299 300 302 301 297 297 295 294 295 294 295 296 295 295 296 296 298 298 295 294 295 295 295 295 295 295 296 294 292 289 288 287 285 283 283 283 283 283 283 283 283 283 283 283 284 284 284 284 284 284 284 284 283 284 284 284 284 284 284 284 284 284 284 284 284 284 284 284 284 284 284 284 284 284 285 285 285 285 285 285 285 285 285 285 285
297 299 299 300 299 296 295 293 293 293 295 297 294 292 293 294 294 295 295 293 292 294 294 293 293 293 295 296 293 290 288 286 285 284 283 283 283 283 283 283 283 283 283 283 283 284 284 284 284 284 284 284 284 284 284 284 284 284 284 285 284 284 284 284 284 284 284 284 284 284 284 284 284 284 284 284 284 285 285 285 285 285 285 285 285 285
296 299 300 298 297 296 295 295 295 295 297 297 293 291 292 292 292 292 291 290 291 294 293 292 292 292 292 293 290 288 287 285 284 283 283 283 283 283 283 283 283 283 283 283 283 283 284 284 285 284 284 284 284 284 284 284 284 284 284 285 284 284 284 284 284 284 284 284 284 284 284 284 284 284 284 284 284 285 285 285 285 285 285 285 285 285
297 299 301 300 296 295 296 296 297 297 296 295 292 290 291 291 291 293 291 290 291 292 291 291 291 291 290 290 288 286 285 284 283 283 283 283 283 283 283 283 283 283 283 283 283 283 284 284 284 284 284 284 284 284 284 284 284 284 284 284 284 284 284 284 284 284 284 284 284 284 284 284 284 284 284 284 284 285 285 285 285 285 285 285 285 285
299 300 301 302 298 297 298 297 296 297 296 296 294 291 291 291 290 292 292 290 290 291 290 290 290 290 289 288 286 285 284 283 283 283 282 282 282 283 283 283 283 283 283 283 283 284 284 284 284 284 284 284 284 284 284 284 284 284 284 284 284 284 284 284 284 284 284 284 284 284 284 284 284 284 284 284 284 285 285 285 285 285 285 285 285 285
300 299 297 300 298 298 299 296 295 296 295 296 295 291 291 291 290 290 291 290 290 290 290 290 289 288 287 285 284 284 283 283 282 282 282 282 282 282 283 283 283 283 283 283 284 284 284 283 283 284 284 284 284 284 284 283 283 283 283 283 283 283 283 284 284 284 284 284 284 284 284 284 284 284 284 284 284 285 285 285 285 285 284 285 285 285
299 298 295 296 298 298 297 296 295 295 295 295 294 291 291 291 290 290 290 289 290 289 289 288 287 286 285 284 284 283 283 282 282 282 282 282 282 282 283 283 283 283 283 284 284 284 283 283 283 284 284 284 284 283 283 283 283 283 283 283 283 283 283 283 284 284 284 284 284 284 284 284 284 284 284 284 284 285 285 285 285 284 284 284 285 285
296 300 297 294 296 297 296 296 296 294 295 294 292 290 290 290 290 289 289 289 289 288 287 286 285 284 284 284 283 283 283 283 282 282 282 282 282 283 283 283 283 283 284 284 283 283 283 283 283 284 284 283 283 283 283 283 283 283 283 282 282 283 283 283 284 284 284 284 284 284 284 284 284 284 284 284 285 285 285 285 285 284 284 285 285 285
294 299 299 295 296 297 296 296 295 293 294 293 291 290 290 290 289 288 288 288 287 286 285 284 283 283 283 283 283 283 283 282 282 282 282 282 282 282 283 283 283 283 283 283 283 283 283 283 283 283 283 282 282 283 283 283 283 282 282 281 282 282 282 283 283 283 283 284 284 284 284 284 284 284 284 284 285 285 285 285 284 284 285 285 285 285
298 298 298 297 297 296 296 295 293 292 293 293 292 291 290 290 288 287 287 286 285 284 284 283 282 282 283 283 283 283 283 282 282 282 282 282 282 283 283 283 283 283 283 283 283 283 283 283 283 282 282 282 282 282 282 282 282 281 281 281 282 282 282 282 283 283 283 283 284 284 284 284 284 284 284 284 284 285 285 285 285 285 285 285 285 285
294 298 298 296 297 296 294 293 291 291 292 292 292 291 290 288 287 285 285 285 284 284 283 282 282 282 283 283 282 282 282 282 282 282 282 282 282 283 283 283 283 282 282 282 282 283 283 282 282 282 282 282 281 281 281 281 280 280 281 281 281 281 281 282 282 283 283 283 284 284 284 284 284 284 284 284 284 285 285 285 285 285 285 285 285 285
292 297 296 293 296 299 294 291 291 291 291 290 291 290 289 287 285 284 284 284 283 283 283 282 282 282 283 282 282 282 282 282 282 282 282 282 282 283 283 282 282 282 282 282 283 282 282 282 281 281 280 280 279 279 279 279 280 280 280 280 280 280 281 281 282 282 283 283 283 283 284 284 284 284 284 284 284 285 285 285 285 285 285 285 285 285
299 299 293 290 294 296 293 291 291 291 290 290 290 291 289 286 285 284 283 283 283 283 282 282 282 282 282 282 282 282 282 282 282 282 282 283 283 282 282 282 282 282 282 282 282 282 281 281 280 279 278 278 278 278 278 279 279 280 279 279 279 280 280 281 281 282 283 282 282 283 283 284 284 284 284 284 284 285 285 285 285 285 285 285 285 285
300 299 293 291 293 293 291 291 291 290 290 290 290 291 288 285 284 283 283 283 283 282 282 282 282 282 282 282 282 282 283 282 282 282 282 282 282 282 282 281 282 282 282 282 282 281 281 280 279 277 277 277 277 277 277 277 278 279 278 278 278 279 280 280 281 281 281 281 282 282 283 283 284 284 284 284 285 285 285 285 285 285 285 285 285 286
297 297 294 291 292 292 291 290 290 290 290 291 291 290 286 284 283 283 283 283 282 282 282 282 282 282 282 282 283 282 282 282 282 282 282 282 282 282 281 281 282 282 282 282 281 281 280 278 277 276 277 277 276 276 276 276 278 278 277 277 278 278 279 280 280 281 281 281 282 282 282 283 283 284 284 284 284 285 285 285 285 285 285 285 285 286
292 293 293 291 291 291 291 290 289 290 290 290 289 288 285 284 283 283 282 282 282 282 283 282 282 282 282 282 282 282 282 282 281 281 282 282 281 281 281 281 281 282 281 281 280 279 278 277 276 275 276 276 276 275 276 276 277 276 276 276 277 278 279 280 280 281 281 281 281 282 282 283 283 284 283 284 284 285 285 285 285 285 285 285 286 286
291 289 292 293 291 290 290 289 290 291 291 289 287 286 285 284 283 282 282 282 282 283 283 283 282 282 282 282 282 281 281 281 281 281 281 281 281 281 281 281 281 281 280 280 279 277 277 276 275 275 275 275 275 275 275 275 274 274 274 275 276 277 278 279 279 280 280 281 281 282 282 283 283 283 283 284 284 285 285 285 285 285 285 285 286 286
293 290 290 292 291 289 289 290 290 290 290 288 286 285 284 283 283 282 281 282 283 283 283 283 282 282 282 282 281 281 281 281 281 280 281 281 281 281 280 280 280 280 280 279 277 276 276 275 274 274 274 275 275 274 274 274 273 273 274 275 276 277 277 278 278 279 280 280 281 282 282 282 282 282 283 284 284 284 285 285 285 285 285 285 286 286
292 289 288 289 290 289 289 289 288 288 288 287 285 284 284 283 283 282 281 282 283 283 283 283 282 282 282 281 281 281 281 281 281 280 280 280 280 280 280 279 279 279 279 278 276 275 275 274 273 273 274 274 274 273 273 273 272 273 274 275 275 276 276 276 277 278 280 280 281 281 281 282 282 283 283 284 284 284 285 285 285 285 285 286 286 286
291 290 288 289 289 289 289 288 286 287 287 286 284 284 284 283 282 282 283 283 283 283 282 282 282 282 281 281 281 280 280 280 280 280 280 279 279 279 279 279 279 279 278 277 275 274 274 273 273 273 274 274 273 272 272 272 272 273 274 274 275 275 275 276 277 278 279 280 281 281 281 282 282 283 284 284 284 284 285 285 285 285 285 286 286 284
291 291 291 290 287 286 287 287 285 285 286 285 284 283 283 282 282 282 283 282 283 282 282 282 282 281 281 280 280 280 279 279 279 279 279 278 278 278 278 278 278 278 277 275 274 273 273 272 272 273 273 272 272 272 272 271 272 273 273 273 274 274 275 276 277 278 279 280 281 281 282 283 283 283 284 284 284 284 285 285 285 285 286 286 284 282
289 290 292 289 286 285 286 286 285 285 285 284 284 283 282 283 283 282 282 282 282 282 282 281 281 280 280 280 279 279 279 278 278 278 278 278 278 278 278 278 278 277 276 274 273 273 272 272 272 273 272 271 271 271 271 271 271 272 272 273 273 273 275 276 277 277 278 279 280 281 282 283 283 283 283 283 284 285 285 285 285 286 286 284 282 280
289 290 290 288 287 287 286 285 285 285 285 284 283 283 283 283 283 282 282 282 282 282 281 281 280 280 280 279 279 278 278 278 277 277 277 277 277 277 277 277 277 276 274 273 273 272 272 272 272 272 271 271 271 271 270 271 271 271 272 272 272 273 275 276 276 276 278 279 280 280 282 282 283 283 283 284 285 285 285 285 285 286 285 282 280 279
288 288 287 286 287 286 284 285 285 284 284 283 283 283 283 283 282 282 282 282 281 281 281 280 280 280 279 279 278 277 277 277 277 277 277 277 276 277 277 277 276 275 273 272 272 271 271 271 271 271 270 270 270 270 270 270 270 271 271 272 272 274 275 275 275 276 277 278 279 280 281 282 283 284 284 284 285 285 285 285 286 285 283 281 279 278
286 287 286 286 286 284 283 284 284 283 283 283 283 283 283 282 282 282 281 282 281 281 281 280 280 279 279 278 278 277 276 276 276 276 276 276 276 276 277 276 275 273 273 272 271 271 271 271 270 270 270 270 270 270 270 270 270 270 271 271 272 274 274 274 275 276 276 277 278 279 280 282 283 284 284 285 285 285 285 286 286 284 282 280 279 278
286 286 285 284 284 283 283 283 283 283 283 283 282 283 282 282 282 282 281 281 281 281 280 280 279 279 278 278 277 276 276 276 276 276 276 276 276 276 276 275 273 273 272 271 271 271 271 270 270 270 269 269 269 269 269 269 270 270 271 271 272 273 274 274 274 275 276 277 278 279 280 282 283 284 285 285 285 285 285 286 285 283 281 280 279 278
286 285 284 283 283 283 283 283 283 283 283 282 283 283 282 282 282 281 281 281 281 280 280 279 279 278 278 277 277 276 275 275 275 275 275 275 275 275 274 273 272 272 271 271 270 270 270 270 270 269 269 269 269 269 269 269 269 270 270 271 272 273 273 273 273 274 275 276 277 278 280 281 283 284 285 285 285 285 286 286 285 282 280 279 279 279
285 284 284 284 283 282 282 283 283 282 282 282 282 282 282 282 281 281 281 281 280 280 279 278 278 278 277 277 276 275 275 275 275 275 275 274 274 274 273 272 271 271 271 270 270 270 270 269 269 269 269 269 268 268 269 269 269 270 270 271 272 272 272 272 273 274 275 276 277 278 279 281 282 283 284 285 285 285 286 286 285 282 280 279 279 279
284 283 284 284 283 283 283 283 283 282 282 282 282 282 282 281 281 280 280 280 280 279 279 278 277 277 276 276 276 275 274 274 275 274 274 273 273 273 272 271 271 270 270 270 270 270 269 269 269 269 268 268 268 268 269 269 269 270 270 270 271 272 272 272 273 274 275 275 276 277 279 280 281 282 283 284 285 285 286 286 284 282 280 279 279 279
Wind_Speed
3 7 6 2 4 6 4 3 3 2 3 4 3 2 4 4 6 8 5 3 4 4 4 3 5 8 8 10 10 9 14 17 13 13 13 11 11 10 11 12 12 11 10 15 21 25 28 29 31 31 32 35 36 38 41 41 41 40 40 40 40 39 39 40 41 40 38 35 31 27 25 22 21 20 19 18 18 19 19 20 22 24 26 27 29 30
5 8 4 4 6 5 3 2 3 3 3 3 3 2 4 2 6 9 4 3 5 4 3 3 8 9 7 9 8 11 17 15 11 12 11 11 11 9 10 12 10 8 9 14 19 25 28 30 31 32 33 35 37 38 40 40 41 41 40 40 39 39 38 37 37 37 36 35 31 27 26 23 21 19 17 17 17 17 17 17 18 20 21 23 25 27
7 6 5 5 2 2 2 2 3 4 4 2 1 1 4 2 5 9 4 2 3 2 4 3 7 8 5 8 10 13 13 9 9 10 9 9 10 9 10 10 10 10 10 12 15 21 27 29 31 32 33 34 35 35 38 39 40 40 40 40 38 38 37 36 35 35 34 34 32 29 27 24 20 18 16 16 16 16 16 16 16 16 17 19 21 23
5 2 3 1 2 4 2 4 5 4 3 1 1 2 5 4 3 4 3 4 5 1 3 4 4 4 1 6 10 11 8 8 8 8 9 8 8 8 8 7 9 11 11 12 13 16 24 28 30 31 31 32 33 33 35 37 37 37 38 38 37 36 35 35 35 35 34 33 32 31 30 26 21 19 18 17 17 16 16 16 16 17 18 19 21 23
2 2 1 4 4 4 2 5 6 5 4 2 2 1 5 5 2 5 6 8 7 1 1 4 3 2 1 5 7 5 5 8 8 8 10 9 8 7 8 8 10 10 10 11 12 13 19 24 27 29 29 29 29 30 31 32 32 33 35 36 35 35 34 34 34 35 35 34 34 34 33 31 27 24 23 22 21 20 19 19 18 18 19 20 21 23
1 1 1 3 6 6 5 4 4 3 3 4 3 4 5 5 6 7 7 7 5 3 2 3 4 4 0 6 5 1 4 8 7 9 10 8 9 9 10 10 10 10 10 10 12 14 17 22 25 28 29 28 27 27 27 28 30 31 34 35 34 34 34 34 34 34 34 33 33 33 32 32 29 27 26 24 25 25 23 21 19 17 17 19 20 21
1 2 2 3 3 5 6 3 1 2 3 4 2 3 3 3 6 6 4 2 3 4 3 3 2 5 2 4 3 2 6 8 7 9 9 7 8 8 8 8 9 10 10 11 12 15 17 21 25 26 29 28 26 26 26 26 29 31 34 35 34 34 34 34 34 34 33 32 31 30 28 28 27 26 26 26 26 25 24 23 20 18 17 17 18 19
1 4 6 5 4 5 6 4 3 3 4 3 1 1 3 5 5 3 1 1 1 4 3 3 2 3 4 1 4 3 7 9 9 9 8 7 8 8 8 7 9 9 10 12 12 14 18 22 23 24 28 29 26 24 24 25 27 31 33 33 32 33 34 34 35 34 32 31 31 30 28 28 27 27 28 29 27 26 25 24 23 21 19 18 17 18
2 4 5 4 5 5 4 3 3 4 2 5 3 3 4 4 2 2 2 1 1 2 4 4 1 2 6 3 3 1 6 8 8 7 8 8 7 8 9 8 9 9 10 12 12 14 20 24 25 26 27 29 28 23 21 23 26 30 32 31 31 31 33 35 36 35 33 32 31 29 28 29 29 29 30 30 28 27 26 25 25 23 22 21 19 19
1 1 1 1 4 4 4 4 3 5 1 7 5 4 3 2 3 3 2 0 2 2 4 6 0 1 7 4 1 2 5 5 5 4 5 6 7 8 9 10 10 10 10 11 13 17 22 25 26 28 27 29 29 23 20 22 26 30 32 32 32 32 33 37 38 36 33 32 30 29 28 28 29 30 31 30 29 28 26 26 26 25 24 23 22 21
2 1 1 2 2 2 4 4 2 5 4 6 6 4 3 4 3 3 1 2 4 4 6 6 1 1 5 4 1 2 1 0 3 4 4 5 8 8 8 9 10 11 11 12 15 19 25 27 27 26 25 28 30 24 19 22 26 29 31 33 33 33 34 36 38 37 34 31 28 28 28 28 28 29 29 29 29 28 27 26 27 26 25 25 24 23
3 2 1 1 1 1 3 4 1 2 4 4 5 5 5 4 3 4 4 4 3 6 7 4 1 1 4 3 1 1 1 2 2 3 5 5 7 9 8 8 9 10 12 13 13 17 22 27 28 27 25 28 31 25 20 22 26 28 32 34 34 34 35 36 37 37 34 31 29 27 27 28 28 29 28 28 29 29 27 27 28 28 27 26 26 24
2 1 3 3 1 1 3 4 4 4 5 5 5 6 6 4 5 5 5 3 2 8 6 1 0 1 4 3 1 3 2 1 2 3 5 4 4 8 7 7 8 9 12 13 13 14 17 22 27 26 24 28 33 29 23 24 27 29 33 36 36 36 37 37 37 37 34 32 30 29 28 28 28 29 28 28 29 28 27 27 28 29 28 28 27 26
3 5 6 5 2 1 3 4 4 5 5 5 3 4 5 3 5 5 5 3 5 9 5 2 1 3 4 2 3 4 3 3 3 4 5 5 4 7 7 7 9 10 11 10 10 11 13 20 25 25 24 29 35 34 26 25 29 31 35 38 39 40 40 38 37 36 35 32 31 30 29 29 29 28 29 29 28 28 27 27 27 29 29 29 29 29
3 4 5 4 2 3 4 3 1 1 2 3 1 4 4 2 1 3 4 4 7 10 8 4 1 5 6 2 5 4 3 3 3 4 5 5 5 6 8 9 10 11 10 8 10 11 14 23 26 24 25 30 36 34 25 24 30 33 36 40 41 42 40 37 37 37 35 33 32 31 31 30 29 29 29 29 29 28 28 28 28 29 30 30 31 32
2 3 5 3 2 1 4 0 2 3 1 3 2 4 3 0 3 2 4 4 4 6 7 5 2 3 2 2 2 2 3 4 4 5 6 7 7 9 12 12 13 14 13 13 15 15 20 28 28 25 27 30 35 32 23 24 32 36 41 44 44 42 38 36 38 38 36 33 32 32 31 31 31 30 30 30 30 30 30 30 30 30 31 32 33 33
2 3 6 5 3 1 3 1 0 3 2 2 3 3 4 3 6 1 4 2 1 4 4 3 5 4 1 1 3 4 6 5 5 7 10 12 14 16 15 15 16 16 16 17 16 16 20 26 28 29 28 29 34 29 21 28 38 43 46 46 44 42 37 36 38 39 38 34 32 32 31 30 30 29 29 30 31 32 32 31 31 31 32 32 33 32
1 4 6 4 5 3 3 2 2 3 1 2 2 4 3 1 4 3 2 3 4 5 4 5 10 9 4 2 2 4 8 9 10 13 15 16 17 16 15 16 17 17 17 17 16 17 20 23 26 28 28 32 32 24 24 37 45 46 45 43 42 40 37 37 38 38 37 35 33 32 32 31 30 30 30 30 31 31 31 31 31 31 32 33 33 33
3 2 6 1 3 7 1 4 4 4 2 3 1 2 2 2 3 2 1 3 4 5 5 7 12 9 3 3 2 6 10 12 13 14 15 16 15 14 16 17 19 19 17 16 16 16 17 22 26 27 29 31 25 22 32 44 46 44 42 40 39 38 37 38 39 39 38 35 33 32 32 32 31 31 31 31 31 31 31 31 31 31 32 33 34 34
2 2 4 4 4 6 4 4 4 5 5 4 3 3 3 1 3 2 2 1 2 5 6 8 12 7 1 3 2 6 10 12 16 17 14 14 15 15 16 16 18 19 16 16 16 15 17 24 29 30 29 24 20 27 40 43 42 42 40 38 37 36 36 37 39 39 39 36 34 34 34 34 33 32 31 31 31 31 31 31 31 31 31 32 33 33
1 3 3 6 5 5 3 2 1 1 3 4 4 4 4 1 1 2 1 1 1 3 5 7 11 7 1 2 2 5 10 15 18 16 13 14 16 17 18 19 18 18 18 17 16 15 18 23 30 32 26 20 25 35 40 40 41 40 38 36 35 34 34 36 37 38 38 36 35 36 37 37 37 36 34 33 31 30 30 30 30 30 31 31 32 32
1 2 2 5 5 4 3 2 1 3 4 3 3 2 0 1 2 3 4 2 2 2 3 5 9 8 1 2 2 4 12 16 15 12 13 15 18 19 20 21 20 18 18 18 17 16 17 21 28 27 21 24 33 38 38 38 38 36 36 35 33 32 33 35 37 37 37 35 34 35 36 37 37 37 36 35 34 32 32 31 31 31 31 31 32 32
0 2 0 4 4 4 4 3 2 6 11 8 4 2 2 2 4 2 4 4 1 2 4 4 8 8 0 4 2 8 14 14 11 12 15 16 19 21 20 21 21 19 18 19 18 16 17 23 25 20 22 33 38 37 37 37 34 34 35 33 31 33 35 37 37 37 36 34 33 35 36 36 36 35 35 35 34 33 33 33 32 32 31 30 31 32
1 2 2 5 5 2 3 3 2 5 9 7 4 3 3 2 2 4 3 2 3 4 2 2 9 9 1 1 7 13 15 12 11 15 18 18 18 20 20 20 19 18 19 20 18 16 20 23 19 16 26 35 36 36 35 33 32 34 33 31 32 35 36 37 36 35 34 33 34 35 35 35 35 34 34 33 33 32 33 33 33 32 31 30 31 32
2 1 2 5 6 6 5 4 3 2 3 4 2 3 3 3 3 1 1 3 2 4 1 3 9 11 7 9 15 17 14 12 15 18 19 18 18 19 20 19 17 18 20 20 19 19 19 16 14 19 29 33 34 34 32 31 32 32 31 32 34 35 35 35 34 34 33 33 33 34 33 34 34 33 33 32 32 32 32 32 32 32 31 30 31 31
1 1 3 4 3 6 6 6 6 5 3 2 2 3 3 3 4 2 1 1 2 6 7 5 9 15 17 19 21 17 13 14 19 21 20 18 19 19 18 17 17 18 18 19 21 19 15 14 18 26 31 31 32 32 32 33 33 33 33 34 34 35 35 35 34 34 33 33 33 32 32 32 32 32 32 32 32 32 31 31 30 30 30 29 29 30
3 1 2 5 4 5 6 9 7 4 4 4 1 3 2 1 3 3 1 1 5 10 10 7 10 19 23 23 21 16 14 16 19 21 20 19 19 19 18 18 20 18 17 18 17 14 15 18 22 27 29 29 30 33 34 34 34 34 34 35 36 37 36 35 34 33 33 33 32 31 31 32 32 32 32 32 32 32 31 30 29 29 29 29 29 29
4 2 1 3 5 7 8 11 9 5 5 4 1 3 1 1 1 4 1 6 8 8 9 11 17 21 22 23 20 16 16 17 19 21 21 20 20 19 18 20 21 20 18 16 13 14 20 22 21 24 27 28 30 34 33 32 34 35 34 34 37 38 36 36 35 33 33 32 31 31 32 32 32 32 32 31 31 31 30 29 28 28 29 29 28 28
4 1 1 2 5 9 9 11 8 4 3 2 5 3 1 1 1 3 3 8 9 7 11 19 22 21 20 19 18 17 19 19 20 22 21 20 21 21 21 22 22 21 19 16 17 21 24 23 21 22 26 29 32 33 32 31 32 33 33 36 38 38 37 37 36 35 33 30 30 31 32 32 32 31 31 30 29 29 28 27 27 28 28 28 27 28
3 1 1 3 4 9 9 7 5 5 4 1 5 3 2 2 3 5 6 9 10 12 15 19 22 20 15 13 16 18 19 17 17 20 21 22 23 23 23 23 22 19 17 17 20 24 24 24 23 23 26 30 33 33 30 28 29 30 34 38 39 38 37 38 37 34 31 30 31 32 32 32 31 30 29 29 27 27 27 27 27 27 27 27 28 27
3 4 0 3 3 7 5 3 7 7 4 2 3 1 2 3 3 6 8 8 10 15 18 18 19 16 9 11 18 20 18 16 17 21 22 21 23 25 23 22 21 20 22 22 22 23 25 25 24 22 25 29 33 33 30 28 30 33 37 40 39 36 37 40 37 32 31 32 33 33 33 31 30 30 28 27 27 27 28 27 26 26 26 26 26 26
5 4 2 4 5 6 2 6 13 10 3 4 1 3 5 6 7 8 7 7 11 17 20 19 15 11 9 13 19 20 19 20 20 20 20 19 23 26 23 21 22 24 28 28 26 26 27 25 22 22 26 31 34 34 34 34 36 39 41 40 37 36 39 39 35 32 32 32 31 31 31 30 30 30 28 28 29 29 28 27 26 26 26 25 25 27
2 2 3 4 4 8 8 11 14 9 5 4 2 2 5 11 13 13 10 11 13 13 13 14 11 11 15 17 20 23 24 23 20 17 18 19 22 23 23 24 28 29 29 28 29 28 25 22 23 26 30 35 37 39 40 41 41 42 40 38 36 38 38 35 33 33 31 29 28 28 29 29 28 28 29 30 30 29 28 27 26 26 25 26 27 28
1 3 2 2 1 7 12 14 12 6 5 4 1 3 5 12 14 17 16 14 14 12 10 11 11 16 19 18 20 25 24 23 22 19 18 17 16 17 22 28 31 31 29 28 28 25 21 23 28 32 37 41 43 45 45 43 40 38 36 36 38 38 35 32 33 32 28 26 28 29 28 28 26 27 28 29 29 29 28 27 27 26 26 27 28 27
3 4 2 1 0 3 7 10 10 6 3 2 3 2 4 7 11 20 22 15 14 14 13 14 16 19 20 17 18 21 21 23 25 23 19 15 12 16 23 27 29 30 30 27 24 23 24 28 32 37 41 43 43 43 42 38 36 34 36 38 37 35 33 32 32 30 27 28 30 30 28 27 26 26 27 28 28 28 27 27 28 28 28 28 27 27
4 3 2 1 0 2 4 5 4 6 5 2 0 1 4 8 12 18 22 18 14 10 10 16 20 19 19 19 18 17 20 23 23 22 18 12 13 19 23 24 27 28 26 24 25 27 30 32 35 40 41 39 39 39 39 38 36 34 35 37 35 33 33 31 30 29 28 30 31 32 30 28 28 27 28 29 28 27 27 27 28 29 29 27 27 28
5 4 1 3 1 1 4 3 3 6 6 4 2 1 3 9 12 12 17 19 11 4 8 16 20 21 23 24 21 20 24 24 20 19 19 17 18 21 23 26 28 27 26 29 32 32 32 34 39 42 40 37 36 38 39 39 36 34 36 37 36 34 33 31 28 27 28 29 31 32 32 30 28 28 29 29 27 27 27 28 28 29 29 27 27 28
5 4 3 3 2 2 2 4 3 5 5 1 3 3 4 8 11 10 13 13 5 4 11 17 21 26 28 27 27 26 24 20 17 18 21 24 24 24 27 32 33 31 31 34 35 34 35 40 42 41 38 37 37 39 40 38 36 36 37 38 36 34 32 29 28 28 29 30 31 32 32 29 27 28 29 28 27 27 27 28 28 29 28 28 28 28
7 4 4 4 2 2 2 3 3 4 4 3 3 7 9 10 12 10 9 8 7 12 17 19 23 28 27 27 28 25 18 14 15 17 21 27 29 27 29 32 36 40 38 33 32 36 40 44 43 40 39 37 36 38 39 39 39 37 34 33 33 32 31 30 30 31 32 33 33 32 30 28 28 29 29 28 28 28 28 29 29 29 29 29 29 29
6 4 4 5 2 2 3 3 3 3 4 3 3 9 13 13 11 10 9 10 14 19 21 21 24 27 26 25 23 19 15 14 17 20 25 30 31 31 32 30 34 42 40 31 35 44 45 41 40 41 40 36 36 38 38 39 39 35 31 32 32 30 32 33 34 34 35 35 35 32 30 29 29 29 28 28 28 28 29 29 29 30 30 29 29 29
2 2 2 3 3 4 3 3 3 4 5 4 7 12 15 14 10 8 10 12 16 22 23 22 23 24 24 23 18 15 16 18 22 26 29 30 30 32 35 36 38 41 35 30 41 49 44 38 40 41 38 35 38 40 39 39 38 33 32 33 31 32 35 36 36 36 37 37 35 32 30 30 29 29 29 28 27 28 29 29 30 30 29 29 28 25
2 2 1 1 2 2 2 3 5 4 3 5 13 14 12 11 9 8 11 13 16 21 23 23 23 22 22 22 19 17 21 25 27 28 27 27 28 28 33 39 42 39 31 33 44 47 39 37 40 39 35 35 38 39 38 38 36 33 32 32 33 37 39 36 36 38 39 39 36 32 31 29 28 29 28 27 27 27 28 30 30 29 29 29 25 21
1 2 2 2 2 2 2 2 3 4 3 10 15 12 8 8 9 10 12 14 16 20 21 20 21 20 20 21 21 22 25 27 28 27 27 28 29 29 32 38 38 33 31 36 43 42 38 39 40 36 34 37 39 38 38 37 35 33 32 33 37 40 37 34 38 41 40 39 37 35 31 28 27 28 27 27 27 26 28 29 28 28 29 25 18 17
1 1 1 2 1 1 2 1 2 7 9 10 10 9 9 10 10 10 12 13 16 17 16 16 19 20 20 21 23 24 25 26 26 26 27 28 28 29 34 37 34 32 35 41 43 41 40 40 37 34 36 40 40 39 38 37 34 33 34 36 39 40 36 36 41 42 39 37 36 35 32 29 27 28 27 27 27 26 27 27 26 27 26 18 14 15
3 3 2 2 2 2 4 7 8 9 9 7 7 10 12 13 11 11 13 14 15 14 12 13 17 20 19 21 23 23 22 24 26 25 25 26 27 28 33 35 35 36 40 43 43 42 41 39 37 36 39 40 39 39 38 37 34 33 35 38 40 37 35 39 44 42 38 36 35 35 34 31 29 28 27 26 25 25 25 25 25 24 20 13 12 12
3 1 2 0 3 4 6 9 10 10 10 10 10 10 11 11 9 10 13 13 12 12 11 11 14 17 17 18 20 20 21 23 25 25 24 25 26 30 33 34 37 41 43 43 44 43 41 38 38 38 39 39 40 39 38 38 36 33 35 38 38 35 36 41 42 39 37 37 37 37 36 33 29 27 26 26 26 25 24 24 24 20 15 13 11 9
2 0 1 1 2 4 4 6 8 11 13 16 14 11 11 12 11 11 11 12 13 14 14 14 15 16 16 16 16 20 24 25 24 24 25 24 25 27 29 32 38 41 42 44 46 44 40 38 37 36 37 38 40 39 37 37 37 36 36 37 36 36 39 40 38 36 37 38 37 36 35 32 28 27 25 24 25 25 24 25 23 16 13 13 11 8
1 2 2 2 2 4 8 11 12 12 11 11 11 10 11 13 14 16 16 17 18 20 21 22 21 17 15 16 17 19 22 24 23 24 24 23 23 25 28 34 40 41 43 45 46 42 39 38 36 36 36 37 39 39 38 37 38 38 37 36 36 39 40 39 37 36 37 37 36 34 33 31 30 27 24 23 24 23 23 24 21 13 11 13 12 10
1 1 1 4 4 6 9 11 14 14 10 9 11 12 13 14 16 18 19 20 21 21 21 25 28 24 20 19 19 20 22 23 24 25 25 22 23 27 32 38 42 42 43 44 43 41 39 38 37 37 37 38 39 40 38 38 38 37 36 36 38 40 39 39 38 37 37 36 35 33 30 29 30 28 24 23 24 23 24 24 18 12 13 14 11 10
2 1 2 3 4 5 7 9 12 12 11 11 15 16 16 17 17 17 17 18 18 19 19 21 26 29 27 25 24 21 21 22 26 28 26 23 25 31 37 41 44 43 42 42 42 40 38 37 38 38 38 39 41 39 37 37 37 38 38 39 39 39 39 39 36 34 34 33 31 30 28 27 28 28 25 23 22 22 23 22 15 11 13 13 9 9
0 1 2 3 3 7 10 10 9 9 9 13 16 15 17 19 17 15 17 17 17 21 23 21 22 24 24 27 30 27 22 24 29 30 26 27 32 35 37 41 42 42 42 42 40 38 38 40 41 39 38 40 39 36 35 36 37 39 41 41 39 40 41 39 33 30 30 29 29 30 28 26 27 27 25 24 23 21 20 18 14 12 13 11 8 9
Wind_Direction
57 53 41 19 308 299 285 238 193 187 157 160 161 197 241 250 286 289 276 291 353 346 295 316 311 298 329 5 14 29 48 47 38 43 44 39 40 34 33 31 26 27 16 9 12 14 15 14 14 14 13 12 13 13 13 13 12 11 10 8 7 7 8 9 8 7 7 6 2 356 349 341 334 327 318 311 304 296 289 285 280 275 273 270 266 264
55 59 22 277 261 260 281 242 162 114 111 131 140 271 292 233 269 293 292 293 8 23 280 332 334 319 12 30 22 48 56 47 34 42 39 35 38 33 31 26 19 18 6 8 11 10 11 10 10 10 10 10 9 9 9 9 8 7 6 5 2 2 3 5 5 4 3 1 359 352 347 342 337 335 328 322 319 312 305 299 291 284 279 274 271 269
46 50 316 286 244 144 63 61 99 107 114 105 97 352 323 301 281 296 293 285 8 18 280 347 345 323 27 59 48 52 64 62 46 46 41 33 35 29 26 20 11 9 5 7 7 5 5 5 6 7 7 7 6 5 6 6 5 4 2 0 357 357 358 358 359 360 358 357 356 352 348 345 340 339 337 330 328 323 315 310 303 295 289 283 279 276
59 6 319 7 117 130 69 23 48 63 80 92 22 24 319 318 340 304 301 321 327 293 264 312 318 304 46 88 66 54 64 72 58 53 49 39 38 28 21 19 12 9 3 2 1 0 1 1 3 3 1 2 2 2 3 2 1 359 358 356 353 352 352 352 353 354 353 352 352 350 348 347 342 339 339 335 335 333 325 322 317 311 306 299 292 287
108 280 99 72 44 95 91 9 39 44 8 295 224 309 300 304 283 247 281 316 326 353 289 324 328 286 178 90 71 53 52 58 46 42 41 34 30 24 20 20 15 13 5 358 356 354 356 357 357 357 356 355 357 358 358 358 356 354 353 351 349 347 346 346 346 347 348 347 347 347 346 346 343 339 339 337 337 336 332 328 325 322 316 309 303 297
36 294 116 49 18 49 74 36 33 51 358 313 249 229 255 285 275 265 290 319 356 355 308 24 6 295 160 89 83 43 42 49 39 35 33 23 19 17 16 14 9 7 3 358 355 351 351 352 351 352 351 350 349 351 352 352 351 349 349 347 346 345 343 341 341 342 343 342 343 342 341 340 337 332 332 332 330 329 330 328 326 324 319 313 308 304
25 18 53 60 46 35 50 54 313 135 53 345 291 197 208 277 277 277 297 340 16 310 281 82 81 268 291 89 127 117 58 44 33 33 27 16 16 16 12 6 2 360 357 354 352 351 349 348 348 347 346 343 341 342 345 346 346 346 345 344 343 343 341 338 337 337 338 337 337 336 333 330 326 322 321 325 325 324 325 324 323 323 322 317 311 307
350 359 20 31 48 34 31 14 272 153 82 334 305 68 317 300 278 252 181 149 275 295 317 45 111 251 287 209 179 139 63 38 24 23 16 10 9 10 6 360 359 356 353 351 347 348 346 343 342 339 338 337 333 332 337 340 342 343 342 340 339 339 339 337 335 333 332 332 330 329 326 323 320 316 315 320 322 323 323 321 320 321 320 320 315 311
14 4 3 2 18 21 5 324 249 152 102 281 289 11 322 294 271 167 136 208 282 345 323 315 57 291 279 237 180 127 62 35 17 11 1 2 358 359 0 353 353 351 348 349 343 341 340 338 335 332 332 333 330 327 331 337 339 340 339 336 335 336 337 337 335 332 328 327 325 323 321 318 316 315 314 315 316 318 321 319 319 320 318 318 316 313
23 9 230 83 36 356 298 282 201 151 266 289 310 14 51 61 54 84 97 60 26 18 285 279 30 286 281 292 357 27 58 26 354 351 346 353 349 349 354 347 346 347 344 344 340 336 335 332 329 327 327 331 331 325 328 336 338 339 339 336 333 332 335 336 334 330 324 322 320 317 316 313 312 313 312 311 310 312 315 314 316 318 316 316 314 314
310 284 193 105 42 281 283 298 190 182 264 316 346 354 28 48 42 49 51 62 39 331 286 274 203 156 286 302 2 4 54 207 308 333 329 348 354 348 346 343 343 343 339 339 336 332 331 329 326 323 324 330 331 324 323 333 336 338 339 337 332 328 331 333 331 328 321 316 314 311 311 309 308 309 308 307 305 306 308 308 310 312 312 312 310 311
345 15 346 292 295 298 335 337 325 240 284 356 15 354 360 359 6 17 355 29 27 296 281 264 218 153 259 276 132 186 272 220 239 318 318 330 353 347 336 336 338 337 334 333 331 330 330 330 328 325 324 331 332 323 319 329 334 337 340 338 332 325 326 328 328 326 320 314 310 308 307 306 306 306 305 303 302 303 304 304 306 308 308 308 307 307
349 325 313 303 300 16 6 352 347 347 357 17 24 22 23 355 354 359 332 354 276 271 270 184 26 236 239 261 173 176 216 259 239 275 294 286 324 339 328 323 329 330 328 326 327 328 331 332 328 322 323 332 333 323 317 328 334 337 339 338 332 324 321 323 324 323 319 313 310 309 307 306 305 304 303 301 299 300 301 302 303 304 304 303 303 302
336 315 336 354 334 17 57 42 349 333 354 5 19 52 52 24 353 329 309 326 292 284 288 117 144 274 285 282 179 181 191 204 243 269 275 264 284 323 323 314 317 319 316 316 320 321 325 329 324 320 323 331 331 322 316 327 335 336 337 335 330 322 316 317 321 320 316 311 309 308 306 305 304 302 301 300 298 298 299 300 300 300 300 299 299 299
13 328 335 1 331 360 47 78 194 243 318 316 183 111 76 78 349 284 275 295 301 299 305 330 300 278 313 315 179 188 208 221 287 286 280 280 277 302 315 313 315 317 314 314 318 320 326 329 325 321 325 329 327 318 313 327 334 334 333 331 327 319 312 312 317 317 313 308 306 307 305 304 302 300 300 299 298 298 298 299 299 298 298 296 296 298
58 268 275 297 272 26 35 296 166 108 354 282 150 84 21 182 169 216 235 235 270 294 296 306 269 233 310 308 222 285 287 270 284 281 287 300 311 327 331 332 334 334 336 334 331 331 332 330 326 321 322 325 321 313 312 329 333 332 331 328 324 316 309 308 313 314 310 306 304 304 304 303 301 299 299 299 298 299 298 298 298 297 296 295 295 296
37 290 298 332 323 111 110 245 301 56 340 317 52 6 296 185 141 172 279 280 339 295 280 304 298 292 356 296 281 304 293 279 288 307 322 331 340 344 342 341 339 336 334 330 329 327 325 323 320 317 317 318 316 312 320 333 333 331 329 324 319 313 307 306 309 311 309 305 302 302 302 301 298 296 295 296 296 297 296 296 295 295 295 295 294 295
96 300 305 355 341 303 153 127 26 19 10 48 19 306 290 94 100 107 274 328 357 286 274 321 306 307 340 322 278 302 317 332 334 334 339 340 344 344 336 333 329 326 325 322 322 320 317 316 315 314 315 315 314 315 329 333 330 327 322 316 313 309 305 304 306 308 307 303 300 301 302 300 298 295 293 293 293 293 292 291 291 293 294 294 295 294
113 305 297 310 314 301 29 79 9 330 5 72 55 309 30 12 323 18 346 317 329 291 284 306 296 297 317 290 305 336 336 342 336 335 338 337 339 335 328 326 324 324 324 321 321 318 314 314 314 313 314 315 317 324 331 328 323 319 314 310 308 305 302 302 304 306 305 302 299 298 299 299 297 295 293 293 293 293 291 289 289 290 290 292 294 293
120 106 289 281 299 318 360 39 345 319 338 16 39 13 31 158 239 307 331 279 303 287 290 302 298 300 253 225 286 339 337 341 337 336 338 334 333 329 324 324 324 324 322 318 318 315 313 314 314 314 316 318 323 327 325 321 316 313 310 307 306 303 301 300 302 305 304 302 300 300 300 300 298 296 294 293 292 290 288 288 288 288 288 289 290 290
8 104 262 293 335 353 354 16 11 316 328 360 41 14 347 3 273 297 274 134 103 276 285 300 296 294 214 193 269 329 340 346 342 338 336 331 328 326 324 324 323 320 318 315 315 313 311 311 312 315 318 323 325 323 320 316 313 311 309 307 306 304 301 300 301 303 302 300 300 300 301 301 301 300 298 296 294 290 289 289 289 290 291 290 288 289
344 123 235 302 347 344 285 291 294 145 121 80 75 84 78 65 31 340 308 327 101 192 263 286 288 293 305 166 232 338 344 345 345 339 334 329 326 325 323 320 317 314 313 312 311 310 307 307 311 315 320 324 323 321 317 313 311 310 309 308 307 305 302 301 302 301 299 298 297 297 298 298 298 297 297 297 296 294 294 294 294 294 293 291 289 288
133 109 223 282 282 286 300 337 41 112 104 91 79 102 120 107 93 83 300 312 4 277 272 271 281 291 241 172 269 348 345 342 347 339 331 328 324 321 317 313 312 311 310 310 309 307 305 308 312 317 322 323 322 319 314 311 311 310 310 309 309 308 305 304 303 302 300 298 297 297 297 295 294 294 294 294 294 295 296 296 296 295 292 289 288 287
42 70 11 299 283 303 15 36 71 106 93 76 47 51 86 93 115 164 204 311 324 285 284 294 284 288 261 196 319 339 341 343 345 336 331 327 319 315 312 310 312 311 311 311 310 308 308 312 317 321 322 323 320 315 311 311 313 313 312 312 312 309 308 306 304 303 302 299 298 298 296 294 292 291 291 292 291 292 294 294 295 294 291 289 288 287
344 49 37 356 340 343 5 8 327 323 47 67 41 19 58 54 27 82 113 25 318 259 288 313 285 288 308 323 324 331 341 345 338 332 328 321 314 313 313 312 312 313 312 311 311 311 312 317 323 323 321 319 314 311 312 316 318 317 315 314 312 311 310 309 307 305 303 299 298 297 294 292 291 290 290 290 289 289 290 291 291 290 290 290 289 288
19 115 91 73 360 326 323 311 302 314 345 60 89 31 39 60 50 60 79 20 298 293 305 287 274 293 309 318 322 329 345 344 332 327 321 315 311 310 311 313 313 313 312 311 311 312 318 324 323 320 317 313 311 314 319 322 321 319 316 314 313 313 312 310 308 306 303 300 298 295 294 293 291 290 290 288 287 287 287 288 287 288 290 290 289 287
95 100 106 135 196 260 257 263 288 335 321 294 35 40 358 359 70 78 111 269 295 300 295 269 281 301 309 315 320 331 344 339 328 322 318 314 313 310 310 311 310 310 310 308 309 315 323 322 318 315 311 310 316 321 322 322 321 320 318 316 316 315 313 311 309 306 303 301 298 296 295 294 293 291 290 288 287 286 286 288 288 290 292 292 289 285
82 32 74 164 228 250 251 269 294 324 292 275 86 65 333 266 73 74 45 294 300 296 291 301 309 308 309 314 322 332 338 334 325 320 317 314 311 310 310 309 309 310 309 308 316 325 323 318 312 310 312 316 322 321 320 321 322 321 319 317 317 315 312 311 309 306 304 300 297 296 296 295 294 292 290 289 288 287 286 288 290 292 294 293 289 284
104 72 151 179 257 269 268 274 283 283 264 165 121 126 149 191 335 9 302 288 297 287 290 305 310 306 306 313 324 331 332 330 323 316 314 312 310 311 312 312 312 312 312 317 326 325 320 315 311 313 319 322 322 320 320 321 321 321 321 320 318 314 311 311 309 306 303 300 297 297 296 295 294 291 290 289 288 287 287 288 291 292 292 291 288 285
129 298 210 169 277 282 272 269 276 288 288 127 126 155 183 204 273 317 305 291 294 286 287 300 304 302 306 317 325 326 324 322 316 311 311 311 311 312 313 312 312 313 319 324 324 320 317 315 315 320 323 323 321 319 318 318 319 320 321 320 316 312 311 312 309 305 303 303 302 300 298 296 294 292 291 290 289 288 288 288 290 290 290 290 288 285
15 333 267 109 325 289 267 297 316 311 285 186 137 134 297 276 295 325 318 307 307 300 300 308 306 303 317 329 321 318 316 315 313 311 312 312 312 313 313 313 315 322 326 324 320 318 318 319 322 326 324 322 320 318 316 317 319 320 318 315 312 310 312 312 307 303 303 303 303 302 300 299 298 298 297 296 294 292 289 288 289 290 290 290 290 288
20 351 350 56 359 297 295 347 326 328 70 114 46 338 337 340 337 330 323 319 318 313 313 316 312 309 325 327 318 314 315 317 316 314 315 316 315 314 315 318 323 326 326 324 321 320 322 326 328 325 322 323 324 323 322 321 320 317 314 312 310 311 312 310 306 303 301 300 301 302 302 303 303 302 301 301 300 297 293 292 292 291 290 290 292 291
39 3 348 36 353 308 333 340 317 320 52 52 329 303 350 348 336 327 327 322 317 316 314 313 312 318 324 325 322 320 319 319 318 317 317 316 313 312 317 324 326 324 324 323 321 322 327 330 327 325 327 329 327 325 323 321 318 314 313 315 315 314 312 309 308 304 298 297 302 302 303 305 305 305 304 303 301 299 296 294 293 293 292 292 293 290
30 47 31 44 346 305 323 331 323 339 21 345 259 134 12 352 335 323 322 321 320 320 312 308 316 324 325 325 322 319 318 318 316 314 312 308 305 312 322 325 324 322 322 321 321 325 329 328 329 332 332 328 325 323 321 320 318 319 322 325 322 318 315 314 312 306 298 300 305 305 303 305 305 305 304 302 300 299 297 296 295 295 295 293 290 287
31 44 76 64 334 275 316 345 354 359 349 277 194 137 354 346 332 320 317 322 329 325 319 323 325 322 320 319 317 314 313 314 313 310 307 305 307 319 324 322 322 322 321 322 326 328 328 330 333 333 328 326 326 326 326 325 325 328 331 329 324 321 320 319 317 313 309 309 309 307 305 305 306 306 305 303 300 298 297 296 294 293 293 290 287 285
66 66 93 69 328 303 345 17 355 305 306 343 284 262 326 343 345 331 320 323 334 329 325 328 321 315 316 316 315 315 312 313 312 307 309 315 320 323 323 321 321 322 321 324 326 324 326 333 335 329 326 328 331 331 331 329 328 330 330 328 325 323 322 321 319 317 314 312 311 309 308 306 306 306 307 305 301 297 297 297 294 292 291 289 287 286
98 107 49 358 45 42 322 298 256 287 325 13 341 272 356 344 345 336 314 314 327 342 331 325 317 317 322 320 320 322 318 317 315 310 316 326 325 322 320 320 321 322 322 322 322 324 329 333 332 329 326 328 332 332 330 327 327 330 331 329 326 322 321 320 316 314 314 313 311 310 308 306 304 305 307 305 300 297 298 298 297 296 294 291 288 286
71 93 85 12 11 105 286 289 311 328 327 304 268 302 350 336 329 322 302 299 314 343 331 328 323 323 325 323 324 326 322 318 316 314 321 327 325 323 323 323 324 324 323 324 328 334 335 331 330 330 327 327 330 330 329 329 331 333 330 326 323 321 321 320 318 317 316 315 313 311 308 305 303 304 305 302 298 298 300 300 299 297 295 292 289 287
41 43 85 72 24 55 12 312 313 308 282 205 255 309 337 336 324 316 295 291 330 341 336 333 328 325 325 324 324 325 321 317 313 314 320 322 321 322 323 324 326 326 325 330 338 339 333 328 328 328 326 328 329 330 333 336 334 330 324 321 321 322 322 322 321 319 317 316 316 314 310 306 303 303 302 298 298 300 301 302 301 298 296 293 290 288
31 1 24 44 30 11 343 286 245 254 260 239 290 324 338 334 323 324 319 318 335 337 334 331 326 324 323 321 321 323 320 315 311 312 316 317 317 319 321 322 325 325 326 335 341 336 331 329 331 328 327 330 332 332 335 336 331 325 322 322 322 322 321 320 318 316 315 315 314 312 310 306 302 300 300 298 299 302 304 304 302 299 297 294 291 289
29 345 12 36 357 334 323 288 277 262 251 278 329 341 342 332 327 338 328 321 330 329 325 324 324 322 321 319 319 320 315 310 308 309 313 317 317 319 321 321 321 323 326 336 339 335 331 330 331 327 324 330 335 334 333 332 328 323 322 324 324 320 318 317 315 316 317 317 313 309 308 305 301 299 299 299 301 304 305 306 302 298 297 295 294 294
14 325 332 22 334 312 283 291 304 274 229 340 344 344 350 345 336 328 317 316 324 322 319 320 320 319 319 318 317 317 312 309 310 311 313 317 317 318 320 322 323 325 330 337 336 333 331 330 328 325 325 333 336 332 330 330 327 323 324 325 322 318 317 316 319 321 321 319 317 313 309 304 302 301 301 302 304 303 303 304 301 298 298 296 298 304
28 321 308 307 294 300 304 325 320 293 324 5 353 341 352 349 319 308 312 315 318 316 316 319 318 318 321 318 316 316 313 310 312 314 316 317 317 317 320 322 325 329 334 337 335 333 332 330 326 326 331 335 334 331 330 330 326 324 325 322 318 317 318 320 324 324 322 320 320 320 315 308 305 305 305 304 304 301 300 301 301 299 299 299 307 316
130 158 268 279 277 23 345 284 258 283 310 352 353 326 320 318 306 308 314 314 316 318 319 318 317 319 320 318 317 318 315 313 315 316 317 317 317 319 322 323 326 332 334 333 332 333 332 329 327 329 333 332 330 330 330 328 326 324 322 318 317 318 320 325 327 325 321 320 322 323 321 314 309 309 308 305 303 300 300 301 300 298 299 307 324 322
224 190 188 247 236 195 238 255 269 285 302 327 326 306 304 305 305 312 314 311 313 316 316 316 316 317 319 319 318 318 316 316 317 316 316 317 318 321 323 323 328 332 332 330 330 331 331 329 329 331 331 329 330 330 329 327 325 322 319 317 317 318 323 328 328 323 321 321 322 323 322 316 311 308 307 306 304 301 299 300 299 298 303 321 331 318
253 186 130 290 286 264 244 254 277 296 306 310 307 300 298 300 304 310 309 308 309 310 312 314 313 314 318 318 318 319 319 318 317 317 317 319 320 321 322 324 328 330 330 330 330 331 330 330 330 331 329 328 330 330 328 326 324 320 316 315 316 319 325 328 325 322 322 323 323 323 322 318 313 309 308 308 307 304 303 302 301 302 314 330 329 314
293 203 173 237 306 309 291 279 295 309 311 310 310 308 306 309 314 318 316 312 312 313 315 316 314 314 316 316 318 321 320 319 320 321 321 322 322 322 324 327 329 329 329 330 329 329 331 331 331 330 328 328 329 329 328 326 323 319 317 316 318 322 326 326 325 323 322 322 323 324 323 321 317 312 310 310 309 308 309 307 305 312 327 332 325 315
256 181 229 261 272 278 281 288 301 306 296 291 299 310 317 321 324 325 322 318 317 317 318 321 323 322 320 321 323 322 320 320 322 323 324 323 321 322 326 328 327 327 327 328 328 330 331 330 329 328 327 327 328 328 327 325 321 319 319 320 321 324 326 327 326 323 321 322 324 324 323 323 321 317 313 313 312 311 310 310 311 322 336 333 326 316
289 126 235 282 284 270 275 297 317 321 310 305 316 322 323 323 324 322 321 320 321 321 321 324 326 325 323 323 324 322 321 322 323 324 325 323 322 324 326 326 326 326 326 326 328 330 329 328 327 327 326 326 326 326 325 323 321 321 322 322 323 326 327 328 326 324 322 323 324 322 321 324 323 319 315 314 314 313 315 313 314 328 342 340 336 325
357 346 279 304 313 296 300 318 329 325 317 319 324 323 319 320 321 320 319 321 322 322 323 323 323 323 323 323 323 323 322 322 324 326 324 322 323 325 325 325 326 326 325 326 327 327 327 327 327 326 324 325 325 324 323 322 322 322 323 323 324 327 328 327 325 323 322 323 322 320 320 323 322 319 318 316 315 315 317 316 318 336 347 345 344 340
335 275 299 318 296 285 297 310 318 311 299 304 313 316 315 316 317 314 314 317 318 320 323 322 320 322 323 323 324 324 322 322 326 327 325 322 322 323 324 325 325 324 325 327 327 327 327 328 326 325 324 324 324 323 321 321 322 322 323 324 326 327 327 326 323 320 321 322 318 316 319 320 319 318 319 318 316 315 316 317 322 339 351 352 351 354